Overview Statistics Trail Chart Weather Telemetry Raw packets
 

This is the latest recevied weather packets stored in our database for station/object KK6MIG-13. If no packets are shown the sender has not sent any weather packets the latest 10 day(s).

<< 417 418 419 420 421 422 423 >>
Time Temp. Humidity Pressure Rain* Wind** Luminosity Snow
1788028960 15.56° C 7% 1015.3 hPa 0 mm - 548 W/m² -
1788028900 15.56° C 7% 1015.3 hPa 0 mm - 427 W/m² -
1788028840 15.56° C 7% 1015.2 hPa 0 mm - 427 W/m² -
1788028779 15.56° C 5% 1015.2 hPa 0 mm - 427 W/m² -
1788028719 15.56° C 1% 1015.2 hPa 0 mm - 427 W/m² -
1788028660 15.56° C 2% 1015.2 hPa 0 mm - 427 W/m² -
1788028600 15.56° C 2% 1015.2 hPa 0 mm - 427 W/m² -
1788028539 15.56° C 3% 1015.2 hPa 0 mm - 427 W/m² -
1788028478 15.56° C 1% 1015.2 hPa 0 mm - 457 W/m² -
1788028417 15.56° C 1% 1015.3 hPa 0 mm - 504 W/m² -
1788028357 15.56° C 1% 1015.3 hPa 0 mm - 504 W/m² -
1788028297 15.56° C 1% 1015.3 hPa 0 mm - 504 W/m² -
1788028237 15.56° C 1% 1015.3 hPa 0 mm - 496 W/m² -
1788028177 15° C 1% 1015.3 hPa 0 mm - 489 W/m² -
1788028116 15° C 1% 1015.3 hPa 0 mm - 489 W/m² -
1788028056 15° C 3% 1015.3 hPa 0 mm - 489 W/m² -
1788027996 15° C 4% 1015.3 hPa 0 mm - 489 W/m² -
1788027936 15° C 1% 1015.3 hPa 0 mm - 489 W/m² -
1788027875 15° C 1% 1015.3 hPa 0 mm - 552 W/m² -
1788027824 15° C 1% 1015.3 hPa 0 mm - 506 W/m² -
1788027820 15° C 1% 1015.3 hPa 0 mm - 568 W/m² -
1788027696 15° C 1% 1015.2 hPa 0 mm - 656 W/m² -
1788027636 15° C 1% 1015.2 hPa 0 mm - 656 W/m² -
1788027576 15° C 1% 1015.2 hPa 0 mm - 573 W/m² -
1788027515 15° C 1% 1015.2 hPa 0 mm - 571 W/m² -

* Rain latest hour (hover to see other rain measurements)
** Current wind speed in m/s (hover to see current wind gust speed)